wenod
Inserzionista dal 7 / 6 / 2008
Prodotti in vendita: 155
Prodotti spediti: 46
Ultima spedizione: 19 / 03 / 2022
Riscontri Positivi: 28

Riscontri Neutri: 4

Riscontri Negativi: 12

Leggi gli ultimi commenti dei compratori:

Data Commento
27/07/2014 Tutto bene, anche se non sono riuscita a seguire la spedizione sul sito.
17/02/2013 Tutto ok! Grazie!
22/01/2013 Condizioni del libro ottime, grazie
26/10/2012 Grazie... Il libro in buono stato e i tempi di spedizione veloci :)
01/10/2012 l'inserzione diceva che erano come nuovi, tutt'altro, abbaiare stanca tenuto insieme con il nastro adesivo in due punti. sarebbe auspicabile maggior precisione nell'inserzione. grazie.

Altri prodotti disponibili del venditore

Prodotto Codice Titolo Anno Scadenza Prezzo vendita
LIBRO 9788891401199 La patente di guida - manuale teorico categorie A e B e relative sottocateg 2014 31/12/2027 7,00
LIBRO 9788890182686 Tutte le battaglie di Beppe Grillo 2007 31/12/2025 8,00
LIBRO SCOLASTICO 9788889905289 banco di prova 2012 31/12/2025 3,50
LIBRO 9788888681627 dov`è l`uscita storia di una mamma e di alessia, una figlia speciale 2006 31/12/2025 5,00
LIBRO 9788888681474 don bosco a cuneo 2005 31/12/2025 11,50
LIBRO SCOLASTICO 9788888160863 juventas corso di latino MATERIALI DI LAVORO 2 2009 31/12/2025 8,00
LIBRO SCOLASTICO 9788888160856 juventas corso di latino MATERIALI DI LAVORO 1 2008 31/12/2028 8,00
LIBRO SCOLASTICO 9788886963510 A testa alta 2008 31/12/2025 4,00
LIBRO 9788884907905 Conosci il mio amico Parky? Seguimi. Ti aiuterò a conoscerlo in modo serio 2005 31/12/2025 7,30
LIBRO 9788882742324 il barone 1992 31/12/2025 4,60
LIBRO 9788882740115 Sorelle 1999 31/12/2025 5,50
LIBRO 9788882462376 I balenieri di Quintay 2000 31/12/2025 4,00
LIBRO SCOLASTICO 9788880424147 Chimica progetto modulare 2007 31/12/2025 17,50
LIBRO SCOLASTICO 9788880134190 moduli di lineamenti di matematica per il biennio delle scuole superiori 1999 31/12/2025 4,00
LIBRO 9788878248717 Amiche 1998 31/12/2025 4,00
LIBRO 9788878247741 il cigno nero 1997 31/12/2025 4,00
LIBRO 9788878246485 Come stelle cadenti 1994 31/12/2025 4,50
LIBRO 9788878240810 IT 1990 31/12/2025 8,00
LIBRO 9788877826466 boy 1997 31/12/2025 4,00
LIBRO 9788877032270 Il primo libro dei ricordi 1992 31/12/2025 7,50
LIBRO 9788876848766 il posto che cercavo 2005 31/12/2025 8,50
LIBRO SCOLASTICO 9788874852994 Le nuove mappe. Insegnare con la LIM. Matematica. Per la 4ª e 5ª classe ele 2011 31/12/2028 8,10
LIBRO 9788874022311 La vita che si cerca - lettera ad uno studente sulla felicità dello studio 2005 31/12/2025 2,50
LIBRO 9788874022311 LA VITA CHE SI CERCA LETTERA AD UNO STUDENTE SULLA FELICITÀ DELLO STUDIO 2005 31/12/2027 2,50
LIBRO 9788873390237 king arthur 2004 31/12/2025 6,00
LIBRO 9788873203438 finestra rosa percorsi parlanti 2014 31/12/2025 5,00
LIBRO 9788870325300 Piemonte souvenir 1996 31/12/2025 5,00
LIBRO 9788866210771 quattro etti d`amore 2014 31/12/2025 6,00
LIBRO 9788863871265 SAR .7. Ne reponde plus 2013 31/12/2025 7,00
LIBRO 9788863871050 Boves 1943 2010 2012 31/12/2025 15,00
LIBRO 9788863870916 l`Amore che cosa cerchiamo quando cerchiamo 2011 31/12/2025 7,00
LIBRO 9788863870817 Piccoli cuori in provincia granda 2011 31/12/2025 7,00
LIBRO 9788863870336 Crispino e gli animali. Storia di una amicizia 2010 31/12/2025 6,00
LIBRO 9788863870145 gli imbalsamatori 2009 31/12/2027 10,50
LIBRO SCOLASTICO 9788863642216 elementi di scienze della terra 2010 31/12/2027 9,90
LIBRO 9788862505574 Un disperato bisogno di crescere 2014 31/12/2025 12,00
LIBRO 9788861243996 Una storia d`amore e di fede e di coraggio 2013 31/12/2025 11,50
LIBRO SCOLASTICO 9788849414974 nuova matematica a colori GEOMETRIA 2010 31/12/2025 7,90
LIBRO 9788847719965 il mio unicorno magico il primo incantesimo 2007 31/12/2025 3,00
LIBRO 9788847700857 veronica 1997 31/12/2025 2,00
LIBRO SCOLASTICO 9788847213135 Guide pe la scuola cl 5 matematico scientifica 2009 31/12/2028 10,00
LIBRO SCOLASTICO 9788847213128 Guide per la scuola. Area antropologico-sociale. Per la 5ª classe elementar 2008 31/12/2028 10,00
LIBRO SCOLASTICO 9788847208490 Formula mat. Quaderno operativo di matematica. Per la 4ª classe elementare 2006 31/12/2028 2,50
LIBRO SCOLASTICO 978884720231 Eserciziamo con la matematica. Per la 4ª classe elementare 2002 31/12/2028 5,00
LIBRO SCOLASTICO 9788846834423 percorsi di matematica 4 2015 31/12/2028 4,50
LIBRO 9788846450777 L`arte del successo 2004 31/12/2025 14,25
LIBRO 9788846201485 mia per sempre 2000 31/12/2025 2,00
LIBRO 9788846201461 Insieme con i lupi 2000 31/12/2027 3,00
LIBRO 9788846200952 l`uomo che sussurrava ai cavalli 1999 31/12/2025 2,04
LIBRO 9788846200839 Il diario di Bridget Jones. Chili, amore e sigarette: un anno appassionatamente single 1999 31/12/2027 2,50
LIBRO 9788845421921 La zona facile 2002 31/12/2025 6,75
LIBRO 9788845215919 il pendolo di foucault 1990 31/12/2025 6,00
LIBRO SCOLASTICO 9788845184550 Più faccio più imparo! Matematica. Per la 4ª classe elementare 2013 31/12/2028 4,00
LIBRO SCOLASTICO 9788845161100 Attivamente matematica. Per la 4ª classe elementare 2011 31/12/2028 4,50
LIBRO 9788844028541 Riciclare ad arte 2004 31/12/2025 6,25
LIBRO SCOLASTICO 9788843320264 I miserabili Bignami 2002 31/12/2025 3,50
LIBRO SCOLASTICO 9788842697879 Dizionario visuale 2005 31/12/2025 2,25
LIBRO SCOLASTICO 9788842628507 Professione insegnante. Area matematica. Per la 4ª classe elementare 2009 31/12/2028 5,00
LIBRO SCOLASTICO 9788842456315 Odi et amo 2 l`età augustea 2005 31/12/2025 10,40
LIBRO SCOLASTICO 9788842456308 Odi et amo 1 l`età arcaica e la repubblica 2005 31/12/2027 17,85
LIBRO 9788842094906 Guasto è il mondo 2011 31/12/2025 8,00
LIBRO 9788841870617 100 incanti 2011 31/12/2027 6,95
LIBRO SCOLASTICO 9788839530981 corso di scrittura 2010 31/12/2027 3,15
LIBRO SCOLASTICO 9788839530981 INTERMINATI SPAZI - CORSO DI SCRITTURA (U) 2010 31/12/2025 3,50
LIBRO SCOLASTICO 9788839530394 Indeterminati spazi B 2010 31/12/2026 9,00
LIBRO SCOLASTICO 9788839530387 Interminati spazi A narrativa altri linguaggi temi 2010 31/12/2025 11,50
LIBRO 9788838489532 grosso guaio a new york 2007 31/12/2025 8,00
LIBRO 9788838489037 Il cacciatore di streghe - Milla e Sugar 2007 31/12/2025 7,00
LIBRO SCOLASTICO 9788838472725 l`occhio di alabastro 2002 31/12/2025 3,50
LIBRO 9788838455445 quella stratopica vacanza alla pensione mirasorci 2002 31/12/2025 4,60
LIBRO 9788838450204 v come valentina 2001 31/12/2025 4,00
LIBRO 9788838447945 il falco delle nevi 2001 31/12/2025 2,45
LIBRO 9788838441677 Vichinghi. Viaggi, guerre e cultura dei marinai dei ghiacci 1999 31/12/2025 8,78
LIBRO SCOLASTICO 9788838437274 banditi e marionette 1997 31/12/2025 3,50
LIBRO 9788838436406 anni di cane 1999 31/12/2025 3,00
LIBRO 9788838426315 credere non credere 1996 31/12/2025 9,04
LIBRO 9788838426315 Credere non credere 1996 31/12/2025 10,00
LIBRO 9788838424113 il canto delle orche 2002 31/12/2025 3,00
LIBRO 9788831517768 Storielle di rabbini mendicanti e malandrini 1999 31/12/2025 4,00
LIBRO 9788830420601 E liberaci dal male oscuro 2003 31/12/2025 9,80
LIBRO 9788824476720 La patente di guida europea manuale teorico pratico categorie A e B 2006 31/12/2025 4,50
LIBRO 9788820041182 volevo salvarli tutti 2006 31/12/2025 8,50
LIBRO 9788820040253 Dio ci salvi dagli inglesi... o no!? 2006 31/12/2025 9,00
LIBRO 9788817865371 elogio della zucca 2000 31/12/2025 7,23
LIBRO 9788817842143 caro dio ti scrivo... - lettera di ragazzi italiani 1992 31/12/2025 5,00
LIBRO 9788817664769 bagheria 1993 31/12/2025 5,16
LIBRO 9788817534529 Non siamo più povera gente 1989 31/12/2025 7,23
LIBRO 9788817211031 Insieme con i lupi 2000 31/12/2025 5,00
LIBRO 9788817063739 Italiani di domani 2012 31/12/2025 8,00
LIBRO 9788817022880 l`uomo scomparso 2008 31/12/2025 5,00
LIBRO 9788815137159 gli insegnanti italiani: come cambia il modo di fare scuola 2010 31/12/2025 14,00
LIBRO 9788811687702 Non volare via 2014 31/12/2025 5,00
LIBRO 9788811678137 la donna alata 2004 31/12/2025 5,00
LIBRO 9788809791220 L`amico immaginario 2014 31/12/2025 4,00
LIBRO 9788809056374 strega come me 2009 31/12/2025 0,50
LIBRO 9788809048829 caccola e i mammut 2006 31/12/2027 1,95
LIBRO SCOLASTICO 9788809012233 atlante geografico per la scuola 1999 31/12/2025 6,25
LIBRO 9788807921414 sos per kalle blomkvist 2009 31/12/2025 6,75
LIBRO 9788807490439 Tutto il grillo che conta 2006 31/12/2025 6,50
LIBRO 9788806174088 memorie di adriano 2005 31/12/2027 6,25
sfoglia: prima ultima

I numeri Usato Unilibro

Totale Inserzionisti
14.737
Totale Articoli in vendita
89.529
Ultimo Inserzionista
nico.colonna
Totale inserzionisti di oggi
5
Totale articoli inseriti oggi
6

Top inserzionisti

LibreriaLibrAria
74.917
mescalero62
1.268
max 78
1.177
Summer84
634
exing
542
rodriguez
406
logos
330
ida
235
Vale!
221
Tomiri.236
173
Andy
170
Usatodiale
167
only yesterday Ragusa
158
fede66
157
wenod
155
Aleph_C
153
simonac
149
I Libri di Filippo
148
Via di Carta
145
Billo
126
DEBORAHB
126
marcheromn
118
Marapara
108
scorpioncino65
104
davy
98